Location: Carabito
(9.8355°N, 67.9249°W)
Time: 21:11:13
(UTC+00:00)

SL-16 R/B - Pass Details

Date: 23 May 2024
Orbit: 985 x 1007 km, 99.7° (Epoch: 23 June)

Event Time Altitude Azimuth Distance (km) Brightness Sun altitude
Exits shadow 07:01:54 31° 54° (NE) 1,684 4.1 -41.5°
Drops below altitude 10° 07:06:14 10° 13° (NNE) 2,774 5.3 -40.7°
Sets 07:08:57 0° 4° (N) 3,724 6.0 -40.1°
